Starlink 32040

operational
NORAD ID: 60109 Int'l Des: 2024-117 Owner: SPXS Country: US Constellation: starlink
LEOCIRCULAR

About Starlink 32040

Description loading...

Live Position

Loading 3D Globe...

Upcoming Passes

Altitude History

Altitude vs Time

uPlot chart will show altitude changes over time

Two-Line Element Set

1 60109U 24117U 26036.43821669 .00001652 00000-0 67891-4 0 9996
2 60109 53.1591 186.5741 0000886 73.9327 286.1771 15.30202101 91958
Epoch: Feb 5, 2026 • Age: 7 hours

Current Status

Altitude 475.4 km
Velocity 7.63 km/s
Sub-Earth Point 10.85°N, 41.54°W
Launch Date Jun 23, 2024
Age 1.6 years
Type internet

Technical Details

Classification Payload
Mass 730.00 kg
Dry Mass 700.00 kg
Total Mass 730.00 kg
Length 0.30 m
Diameter 4.10 m
Span 29.00 m
Shape Box + pan
Manufacturer SPXS
Bus Type Starlink V2M
Phase Status In Orbit
Owner/State SPXS/US

Large Constellations

Loading constellations...